Location: Ahstedt
(52.2048°N, 10.1060°E)
Time: 00:56:08
(UTC+00:00)

Cosmos 1743 Rocket - Pass Details

Date: 18 January 2026
Orbit: 597 x 626 km, 82.6° (Epoch: 18 February)

Event Time Altitude Azimuth Distance (km) Brightness Sun altitude
Rises 04:48:00 0° 183° (S) 2,898 7.0 -22.4°
Reaches altitude 10° 04:50:13 10° 182° (S) 1,994 6.2 -22.1°
Maximum altitude 04:54:38 74° 98° (E) 654 3.7 -21.4°
Drops below altitude 10° 04:59:03 10° 14° (NNE) 1,996 6.2 -20.8°
Sets 05:01:16 0° 13° (NNE) 2,902 7.1 -20.4°
